Погода в Карасуке

Россия / Новосибирская область     53°44′03″N   78°02′32″E
темп.,
°C
ветер,
м/с
пор.,
м/с
влажн.,
%
обл.,
%
осадки,
мм/ч
давл.,
гПа
погр.,
м
18 апреля, вс
вс1801:00+3ююз115824 0.0 102210
04:00+2ююз466399 0.0 101992
07:00+1юз486780 0.0 1018135
10:00+5ююз5856100 0.0 1016635
13:00+10зюз71050100 0.0 10131437
16:00+12з71439100 0.0 10102001
19:00+12зюз81261100 0.2 10071134
22:00+8зюз71272100 0.5 1007804
19 апреля, пн
пн1901:00−1сз111572100 0.5 1012912
04:00−5ссз9136698 0.0 10171023
07:00−5ссз8116352 0.0 1021962
10:00−5ссз784895 0.0 10241214
13:00−3ссз67355 0.0 10251419
16:00−2ссз673421 0.0 10261694
19:00−2с6736100 0.0 10271890
22:00−4с57465 0.0 1028892
20 апреля, вт
вт2001:00−5с57495 0.0 10291275
04:00−5с465124 0.0 10291179
07:00−6с45536 0.0 10301007
10:00−4с4544100 0.0 10311392
13:00−1с443797 0.0 10301508
16:000ссз443611 0.0 10291563
19:00+1сз45365 0.0 10281491
22:00−2з35505 0.0 1028109
21 апреля, ср
ср2101:00−2зюз494979 0.0 1026329
04:00−2зюз7134599 0.0 1024604
07:00−3зюз71487100 0.3 1022741
10:00−1з81289100 1.4 1021744
13:00+2ссз7962100 1.6 10211514
16:00+2ссз9106395 0.2 10231423
19:00+2с71070100 0.3 10251211
22:00−1ссз510907 0.0 1028403
22 апреля, чт
чт2201:00−1с611907 0.0 1029361
04:00−2с5109326 0.0 1031349
07:00−2с599232 0.0 1034385
10:00+1ссв67665 0.0 1037802
13:00+4ссв6646100 0.1 10381946
16:00+5ссв6640100 0.0 10391954
19:00+5св663972 0.0 10411802
22:00+1ссв38625 0.0 1043201